Weather History for Milton, FL

Change the Weather History Date:

Friday, February 22, 2013

  Actual Average (KNSE) Record (KNSE)
Temperature  
Mean Temperature 68 °F -  
Max Temperature 70 °F 64 °F 82 °F (2011)
Min Temperature 66 °F 46 °F 28 °F (1999)
Cooling Degree Days 3    
Growing Degree Days 18 (Base 50)    
Moisture  
Dew Point 66 °F    
Average Humidity 91    
Maximum Humidity 100    
Minimum Humidity 83    
Precipitation  
Precipitation 1.86 in - - ()
Sea Level Pressure  
Sea Level Pressure 29.91 in    
Wind  
Wind Speed 6 mph (SE)    
Max Wind Speed 14 mph    
Max Gust Speed 22 mph    
Visibility 7 miles    
Events Fog , Rain , Thunderstorm    
Averages and records for this station are not official NWS values.
T = Trace of Precipitation, MM = Missing Value Source: NWS Daily Summary

Daily Weather History Graph

Daily Weather History Graph

Search for Another Location

Airport:

Trip Planner

Search our weather history database for the weather conditions in past years. The results will help you decide how hot, cold, wet, or windy it might be!

Date:

Astronomy

Feb. 22, 2013 Rise Set
Actual Time 6:21 AM CST 5:41 PM CST
Civil Twilight 5:57 AM CST 6:06 PM CST
Nautical Twilight 5:29 AM CST 6:34 PM CST
Astronomical Twilight 5:01 AM CST 7:02 PM CST
Moon 3:00 PM CST (2/22) 3:58 AM CST (2/22)
Length of Visible Light 12h 08m
Length of Day
11h 20m
Waxing Gibbous, 90% of the Moon is Illuminated
Feb 22
Waxing Gibbous
Feb 25
Full
Mar 4
Last Quarter
Mar 11
New
Mar 19
First Quarter

Hourly Weather History & Observations

Time (CST) Temp. Dew Point Humidity Pressure Visibility Wind Dir Wind Speed Gust Speed Precip Events Conditions
12:56 AM 68.0 °F 64.0 °F 87% 29.89 in 10.0 mi SSE 10.4 mph - N/A   Overcast
1:56 AM 68.0 °F 64.9 °F 90% 29.88 in 10.0 mi South 8.1 mph - N/A   Overcast
2:56 AM 69.1 °F 66.0 °F 90% 29.87 in 9.0 mi South 13.8 mph 20.7 mph N/A   Overcast
3:12 AM 68.0 °F 66.2 °F 94% 29.90 in 10.0 mi South 10.4 mph - 0.00 in   Overcast
3:56 AM 69.1 °F 66.9 °F 93% 29.85 in 10.0 mi South 11.5 mph - 0.00 in   Overcast
4:42 AM 69.8 °F 66.2 °F 88% 29.89 in 10.0 mi South 10.4 mph - N/A Thunderstorm Thunderstorm
4:56 AM 70.0 °F 66.9 °F 90% 29.84 in 10.0 mi South 13.8 mph 21.9 mph 0.00 in Rain , Thunderstorm Light Thunderstorms and Rain
5:22 AM 66.2 °F 64.4 °F 94% 29.91 in 6.0 mi Calm Calm - 0.12 in Rain , Thunderstorm Light Thunderstorms and Rain
5:34 AM 66.2 °F 64.4 °F 94% 29.90 in 7.0 mi NNW 4.6 mph - 0.16 in Rain Light Rain
5:43 AM 66.2 °F 62.6 °F 88% 29.91 in 7.0 mi Variable 6.9 mph - 0.18 in Rain Light Rain
5:56 AM 68.0 °F 64.9 °F 90% 29.87 in 4.0 mi Variable 6.9 mph - 0.30 in Rain Heavy Rain
6:11 AM 66.2 °F 66.2 °F 100% 29.91 in 2.5 mi Variable 4.6 mph - 0.15 in Rain , Thunderstorm Heavy Thunderstorms and Rain
6:26 AM 68.0 °F 66.2 °F 94% 29.93 in 1.5 mi Variable 3.5 mph - 0.52 in Rain , Thunderstorm Heavy Thunderstorms and Rain
6:37 AM 69.8 °F 66.2 °F 88% 29.93 in 2.5 mi Variable 3.5 mph - 0.68 in Rain , Thunderstorm Heavy Thunderstorms and Rain
6:43 AM 69.8 °F 66.2 °F 88% 29.94 in 2.0 mi Variable 4.6 mph - 0.75 in Rain Heavy Rain
6:48 AM 69.8 °F 66.2 °F 88% 29.94 in 3.0 mi SW 4.6 mph - 0.76 in Rain Light Rain
6:56 AM 69.1 °F 66.9 °F 93% 29.91 in 9.0 mi Variable 3.5 mph - 0.76 in Rain Light Rain
7:42 AM 69.8 °F 66.2 °F 88% 29.95 in 10.0 mi Calm Calm - 0.01 in Thunderstorm Thunderstorm
7:56 AM 69.1 °F 66.0 °F 90% 29.91 in 10.0 mi Calm Calm - 0.01 in Thunderstorm Mostly Cloudy
8:03 AM 68.0 °F 66.2 °F 94% 29.95 in 10.0 mi Calm Calm - N/A   Mostly Cloudy
8:27 AM 69.8 °F 66.2 °F 88% 29.95 in 10.0 mi North 6.9 mph - N/A   Overcast
8:38 AM 69.8 °F 66.2 °F 88% 29.95 in 10.0 mi NNE 5.8 mph - N/A   Overcast
8:56 AM 70.0 °F 66.9 °F 90% 29.91 in 10.0 mi NE 5.8 mph - N/A   Mostly Cloudy
9:56 AM 70.0 °F 66.0 °F 87% 29.92 in 10.0 mi North 9.2 mph - N/A   Overcast
10:56 AM 70.0 °F 64.9 °F 84% 29.94 in 10.0 mi NNE 6.9 mph - N/A   Overcast
11:13 AM 69.8 °F 64.4 °F 83% 29.97 in 10.0 mi North 6.9 mph - 0.00 in Rain Light Rain
11:31 AM 69.8 °F 64.4 °F 83% 29.99 in 10.0 mi Calm Calm - 0.01 in Rain , Thunderstorm Light Thunderstorms and Rain
11:56 AM 68.0 °F 66.0 °F 93% 29.95 in 7.0 mi Calm Calm - 0.04 in Rain , Thunderstorm Thunderstorms and Rain
12:13 PM 69.8 °F 66.2 °F 88% 29.96 in 9.0 mi Calm Calm - 0.04 in Rain Light Rain
12:56 PM 69.1 °F 66.0 °F 90% 29.89 in 10.0 mi NE 4.6 mph - 0.05 in   Overcast
1:26 PM 69.8 °F 66.2 °F 88% 29.93 in 10.0 mi Calm Calm - 0.01 in Rain Light Rain
1:33 PM 69.8 °F 66.2 °F 88% 29.93 in 10.0 mi Calm Calm - 0.01 in Thunderstorm Thunderstorm
1:56 PM 69.1 °F 66.9 °F 93% 29.88 in 10.0 mi SSE 3.5 mph - 0.03 in Rain Light Rain
2:09 PM 69.8 °F 66.2 °F 88% 29.92 in 4.0 mi SE 5.8 mph - 0.06 in Rain Rain
2:24 PM 69.8 °F 66.2 °F 88% 29.92 in 5.0 mi Calm Calm - 0.11 in Rain Rain
2:52 PM 69.8 °F 66.2 °F 88% 29.92 in 10.0 mi SSE 4.6 mph - 0.21 in Rain Light Rain
2:56 PM 69.1 °F 66.9 °F 93% 29.87 in 10.0 mi ESE 4.6 mph - 0.21 in Rain Rain
3:56 PM 69.1 °F 66.0 °F 90% 29.86 in 10.0 mi SE 8.1 mph - 0.00 in   Overcast
4:13 PM 69.8 °F 66.2 °F 88% 29.90 in 10.0 mi SE 8.1 mph - N/A   Overcast
4:56 PM 68.0 °F 66.0 °F 93% 29.86 in 10.0 mi SE 6.9 mph - 0.00 in   Overcast
5:27 PM 66.2 °F 64.4 °F 94% 29.90 in 10.0 mi SE 8.1 mph - 0.01 in Thunderstorm Thunderstorm
5:47 PM 66.2 °F 66.2 °F 100% 29.91 in 10.0 mi Calm Calm - 0.01 in Rain Light Rain
5:56 PM 66.9 °F 64.9 °F 93% 29.87 in 10.0 mi SE 4.6 mph - 0.02 in Rain Light Rain
6:56 PM 66.9 °F 64.9 °F 93% 29.88 in 5.0 mi Calm Calm - 0.18 in Rain Heavy Rain
7:02 PM 66.2 °F 64.4 °F 94% 29.92 in 2.0 mi Variable 3.5 mph - 0.11 in Rain Heavy Rain
7:05 PM 66.2 °F 64.4 °F 94% 29.91 in 2.0 mi East 4.6 mph - 0.13 in Rain Heavy Rain
7:15 PM 66.2 °F 64.4 °F 94% 29.92 in 5.0 mi NW 5.8 mph - 0.15 in Rain Light Rain
7:19 PM 66.2 °F 64.4 °F 94% 29.92 in 5.0 mi NNW 6.9 mph - 0.17 in Rain , Thunderstorm Heavy Thunderstorms and Rain
7:29 PM 66.2 °F 64.4 °F 94% 29.92 in 7.0 mi North 3.5 mph - 0.20 in Rain , Thunderstorm Light Thunderstorms and Rain
7:36 PM 66.2 °F 64.4 °F 94% 29.92 in 4.0 mi Calm Calm - 0.24 in Rain Rain
7:56 PM 66.9 °F 64.9 °F 93% 29.87 in 8.0 mi Calm Calm - 0.25 in Rain Light Rain
8:45 PM 66.2 °F 64.4 °F 94% 29.92 in 6.0 mi SE 4.6 mph - 0.01 in Rain Light Rain
8:56 PM 66.9 °F 64.9 °F 93% 29.88 in 5.0 mi SE 4.6 mph - 0.01 in Rain Light Rain
9:21 PM 66.2 °F 64.4 °F 94% 29.91 in 1.8 mi SSE 3.5 mph - N/A   Overcast
9:45 PM 66.2 °F 66.2 °F 100% 29.92 in 0.8 mi SSE 3.5 mph - N/A   Mist
9:56 PM 66.9 °F 66.0 °F 97% 29.88 in 0.8 mi South 3.5 mph - N/A   Mist
10:56 PM 68.0 °F 66.0 °F 93% 29.86 in 0.5 mi South 5.8 mph - N/A Fog Fog
11:45 PM 69.8 °F 66.2 °F 88% 29.89 in 1.0 mi SSW 5.8 mph - N/A   Mist
11:56 PM 69.1 °F 66.9 °F 93% 29.85 in 1.2 mi South 5.8 mph - N/A   Overcast